FW1267 Weather Reports


time (UTC)temp
F
wind
direction
speed
knots
gust
knots
rain 1hr
in
rain 24hr
in
rain mn
in
humidity
%
barometer
mb
20260505100018 59 232 0.0 0.9 0.00 0.00 0.00 72 1009.5
20260505094510 60 232 0.0 2.6 0.00 0.00 0.00 71 1009.5
20260505093009 61 231 0.9 5.2 0.00 0.00 0.00 69 1009.6
20260505091509 60 234 0.0 0.9 0.00 0.00 0.00 71 1009.4
20260505090006 60 234 0.0 1.7 0.00 0.00 0.00 70 1009.4
20260505084506 60 234 0.0 0.9 0.00 0.00 0.00 69 1009.3
20260505083012 60 234 0.0 1.7 0.00 0.00 0.00 69 1009.3
20260505081506 61 234 0.0 0.9 0.00 0.00 0.00 68 1009.1
20260505080002 61 234 0.0 2.6 0.00 0.00 0.00 68 1009.1
20260505074600 61 232 0.9 4.3 0.00 0.00 0.00 67 1009.0
20260505073100 61 240 0.0 0.9 0.00 0.00 0.00 68 1008.9
20260505071614 61 238 0.0 0.0 0.00 0.00 0.00 67 1008.9
20260505070110 61 238 0.0 0.0 0.00 0.00 0.00 66 1009.0
20260505064556 61 238 0.0 1.7 0.00 0.00 0.00 67 1009.1
20260505063052 61 238 0.0 0.9 0.00 0.00 0.00 67 1009.4
20260505061557 61 238 0.0 2.6 0.00 0.00 0.00 66 1009.4
20260505060049 60 222 0.0 1.7 0.00 0.00 0.00 66 1009.4
20260505054554 61 227 0.0 1.7 0.00 0.00 0.00 65 1009.4
20260505053055 61 240 0.0 3.5 0.00 0.00 0.00 65 1009.5
20260505051545 61 196 0.0 1.7 0.00 0.00 0.00 65 1009.3
20260505041542 61 197 0.0 1.7 0.00 0.00 0.00 64 1009.4
20260505040042 61 279 0.0 4.3 0.00 0.00 0.00 64 1009.3
20260505034537 60 215 0.9 2.6 0.00 0.00 0.00 64 1009.2
20260505033044 61 211 0.0 2.6 0.00 0.00 0.00 62 1009.1
20260505031535 61 244 0.0 1.7 0.00 0.00 0.00 61 1009.1
20260505030034 62 219 0.0 5.2 0.00 0.00 0.00 61 1009.0
20260505024534 62 215 0.0 2.6 0.00 0.00 0.00 60 1009.3
20260505023036 62 215 0.9 4.3 0.00 0.00 0.00 60 1009.4
20260505021533 62 163 0.0 1.7 0.00 0.00 0.00 59 1009.3
20260505020033 63 163 0.0 2.6 0.00 0.00 0.00 58 1009.2
20260505014532 63 163 0.0 2.6 0.00 0.00 0.00 58 1009.2
20260505013031 63 191 0.0 2.6 0.00 0.00 0.00 59 1009.4
20260505011529 64 214 0.9 2.6 0.00 0.00 0.00 57 1009.2
20260505010029 64 204 0.0 2.6 0.00 0.00 0.00 57 1009.0
20260505004533 65 216 0.9 5.2 0.00 0.00 0.00 56 1008.8
20260505003028 65 179 0.9 4.3 0.00 0.00 0.00 54 1008.7
20260505001528 66 188 0.9 7.0 0.00 0.00 0.00 52 1008.7
20260505000028 67 200 0.9 4.3 0.00 0.00 0.00 52 1008.6
20260504234527 67 165 1.7 7.0 0.00 0.00 0.00 51 1008.5
20260504233026 68 173 0.9 6.1 0.00 0.00 0.00 50 1008.5
20260504231526 69 214 0.9 5.2 0.00 0.00 0.00 49 1008.4
20260504230027 70 240 0.9 7.0 0.00 0.00 0.00 47 1008.5
20260504224526 71 216 3.5 10.4 0.00 0.00 0.00 44 1008.5
20260504223023 71 238 2.6 10.4 0.00 0.00 0.00 43 1008.5
20260504221524 72 234 3.5 13.0 0.00 0.00 0.00 43 1008.5
20260504220024 72 239 4.3 13.0 0.00 0.00 0.00 42 1008.6
20260504214520 72 183 2.6 14.8 0.00 0.00 0.00 43 1008.7
20260504213022 72 198 3.5 10.4 0.00 0.00 0.00 41 1008.5
20260504211519 72 256 3.5 13.0 0.00 0.00 0.00 41 1008.8
20260504210023 72 240 0.9 17.4 0.00 0.00 0.00 44 1008.7
20260504204516 72 276 1.7 10.4 0.00 0.00 0.00 43 1008.7
20260504203015 72 209 4.3 12.2 0.00 0.00 0.00 39 1008.9
20260504201513 72 257 1.7 12.2 0.00 0.00 0.00 41 1009.0
20260504200023 72 219 0.9 8.7 0.00 0.00 0.00 42 1009.2
20260504194508 71 220 2.6 10.4 0.00 0.00 0.00 41 1009.5
20260504193005 72 171 3.5 13.9 0.00 0.00 0.00 43 1009.8
20260504191504 72 291 1.7 9.6 0.00 0.00 0.00 43 1010.1
20260504190111 71 206 4.3 13.0 0.00 0.00 0.00 42 1010.3
20260504190003 71 229 2.6 13.0 0.00 0.00 0.00 42 1010.2
20260504184614 70 141 3.5 12.2 0.00 0.00 0.00 42 1010.6
20260504183056 70 215 3.5 13.0 0.00 0.00 0.00 41 1010.8
20260504181553 70 214 2.6 12.2 0.00 0.00 0.00 43 1010.9
20260504180052 69 238 5.2 13.9 0.00 0.00 0.00 42 1011.2
20260504174549 70 171 1.7 7.8 0.00 0.00 0.00 43 1011.2
20260504173049 69 219 1.7 8.7 0.00 0.00 0.00 44 1011.4
20260504171545 68 238 2.6 12.2 0.00 0.00 0.00 44 1011.8